Location: Kvarnån
(66.7500°N, 22.2833°E)
Time: 12:00:10
(UTC+00:00)

Daily predictions for brighter satellites

Satellite Brightness Start Highest point End
(mag) Time Altitude Azimuth Time Altitude Azimuth Time Altitude Azimuth
Cosmos 1980 3.7 19:46:16 10° SW 19:51:56 84° SE 19:57:38 10° NE
SL-16 R/B 3.0 19:46:33 10° WNW 19:52:10 57° N 19:57:47 10° E
Cosmos 1850 Rocket 4.5 19:48:10 10° NW 19:53:21 60° NNE 19:58:29 10° ESE
ALOS 2 3.8 19:49:49 10° ESE 19:53:48 35° NE 19:57:49 10° NNW
Cosmos 2150 Rocket 4.2 19:50:14 10° SSW 19:55:16 53° ESE 20:00:25 10° NE
Cosmos 807 4.4 19:52:25 10° NNW 19:55:33 81° WSW 19:59:10 10° SSE
Cosmos 1300 Rocket 3.5 19:51:39 10° S 19:55:55 71° ESE 20:00:15 10° NNE
Cosmos 2251 Rocket 3.7 19:51:55 10° NW 19:57:15 74° SW 20:02:35 10° SSE
SJ 16-02 1.5 19:55:08 10° NW 19:59:23 64° WSW 20:03:36 10° SSE
ARIANE 6 FM1 Upper Stage 3.3 19:56:14 10° W 19:59:56 36° SSW 20:03:36 10° SE
ARIANE 5 R/B 3.5 19:56:05 10° ESE 20:00:12 41° NE 20:04:21 10° NNW
Cosmos 1400 Rocket 3.9 19:59:53 10° SW 20:03:23 44° WNW 20:06:56 10° NNE
Cosmos 1536 Rocket 3.6 19:59:29 10° NNW 20:03:48 78° ENE 20:08:07 10° SSE
Cosmos 1812 3.9 20:02:50 10° WSW 20:04:04 17° WNW 20:05:19 10° NNW
DNEPR-1 R/B 3.8 19:59:59 10° WSW 20:04:16 57° SSE 20:09:12 10° E
Cosmos 2369 Rocket 4.2 20:03:15 10° WNW 20:07:18 21° WSW 20:11:20 10° SSW
Cosmos 292 Rocket 4.0 20:03:01 10° NW 20:07:52 72° NE 20:12:39 10° SE
SL-08 R/B 3.6 20:03:50 10° NNE 20:08:46 81° WNW 20:13:41 10° SSW
Cosmos 2322 4.2 20:05:43 10° WSW 20:11:27 69° NNW 20:17:12 10° ENE
Cosmos 1605 Rocket 4.0 20:05:46 10° S 20:11:51 70° E 20:18:02 10° NNE
TSX-5 3.5 20:08:07 10° SW 20:12:08 76° SSE 20:15:35 10° ENE
Cosmos 1869 3.1 20:09:21 10° SSW 20:12:56 81° WNW 20:16:33 10° NNE
CZ-2C R/B 3.9 20:08:09 10° ESE 20:13:00 34° NE 20:17:46 10° NNW
YAOGAN 11 4.1 20:09:57 10° NNE 20:14:14 88° WNW 20:18:33 10° SSW
USA 234 4.1 20:08:51 10° E 20:14:17 27° SSE 20:19:43 10° SSW
Cosmos 1315 Rocket 2.7 20:10:48 10° S 20:14:31 62° ESE 20:18:14 10° NNE
Cosmos 1743 3.2 20:12:17 10° N 20:15:07 34° ENE 20:17:57 10° SE
Cosmos 1697 Rocket 2.7 20:11:54 10° NW 20:17:36 84° SW 20:23:15 10° SE
USA 186 4.2 20:17:53 10° WSW 20:18:38 11° W 20:19:24 10° WNW
SeaSat 1 2.6 20:17:19 10° SE 20:22:13 67° SW 20:27:08 10° NW
RESURS DK-1 2.2 20:18:16 10° SW 20:22:14 85° SSE 20:26:15 10° ENE
CSL-04 DEB 4.0 20:18:59 10° SSE 20:22:28 85° ENE 20:26:02 10° NNW
Cosmos 2173 Rocket 4.5 20:19:15 10° SSE 20:24:58 44° E 20:30:45 10° NNE
Meteor 2-3 Rocket 3.8 20:20:20 10° NNW 20:26:00 86° WSW 20:31:37 10° SSE
Cosmos 2285 Rocket 4.0 20:20:15 10° SSW 20:26:34 72° SE 20:32:53 10° NE
Cosmos 1892 Rocket 3.9 20:23:16 10° NNW 20:27:41 61° ENE 20:31:59 10° SE
Cosmos 1975 Rocket 4.5 20:25:58 10° NNW 20:30:00 35° W 20:34:01 10° SSW
SAR-Lupe-2 4.1 20:27:28 10° SE 20:30:40 44° ENE 20:33:52 10° NNW
Cosmos 1943 3.6 20:27:57 10° S 20:33:17 43° ESE 20:38:36 10° NE
Cosmos 2151 4.3 20:32:20 10° NNW 20:36:06 31° NE 20:39:51 10° ESE
Cosmos 1980 Rocket 2.3 20:32:30 10° WNW 20:38:15 85° NNE 20:44:00 10° ESE
Helios 1B rocket 2.1 20:35:11 11° SSE 20:38:37 76° WSW 20:42:10 10° NNW
USA 281 4.1 20:33:26 10° E 20:39:45 51° NNE 20:46:05 10° WNW
Tsikada Rocket 4.2 20:34:53 10° NNW 20:41:14 70° ENE 20:47:21 11° SSE
Cosmos 1356 Rocket 3.3 20:38:04 10° SSW 20:42:06 79° ESE 20:46:06 10° NNE
Cosmos 968 Rocket 3.5 20:37:02 10° NW 20:42:15 80° SW 20:47:23 11° SE
Helios 1A 3.6 20:39:05 10° NNE 20:42:50 37° E 20:46:20 11° SSE
Cosmos 1125 Rocket 4.1 20:37:52 10° WSW 20:43:07 65° NW 20:48:25 10° NE
Cosmos 2151 Rocket 4.0 20:39:53 10° S 20:44:05 46° E 20:48:17 10° NNE
Okean 1 Rocket 3.8 20:40:47 11° SSE 20:44:37 37° E 20:48:39 10° NNE
CZ-2C R/B 4.5 20:46:19 10° SW 20:48:22 17° W 20:50:24 10° NW
Cosmos 2100 Rocket 4.2 20:42:23 10° S 20:48:24 57° E 20:54:31 10° NNE
Cosmos 1741 Rocket 4.1 20:45:13 10° NW 20:50:34 89° NE 20:55:55 10° SE
COSMOS 2428 3.4 20:45:33 10° W 20:51:16 62° NNW 20:56:58 10° ENE
Okean 2 Rocket 3.6 20:47:17 11° SSE 20:51:21 44° E 20:55:37 10° NNE
Cosmos 2369 3.9 20:45:45 10° WNW 20:51:28 76° NNE 20:57:13 10° ESE
NOSS 0 Rocket 4.3 20:46:28 10° WSW 20:52:43 74° NNW 20:58:57 10° ENE
Geosat 4.0 20:50:09 10° NE 20:55:10 70° SE 21:00:11 10° SW
Cosmos 2298 Rocket 4.1 20:49:55 10° SW 20:55:16 89° SE 21:00:39 10° NE
MetOp-A 4.4 20:50:17 10° SE 20:55:18 57° ENE 21:00:18 10° NNW
Cosmos 1455 Rocket 4.2 20:51:51 11° SSE 20:55:26 30° E 20:59:18 10° NNE
Cosmos 44 3.7 20:51:14 10° SW 20:56:21 52° SSE 21:01:37 10° ENE
ATLAS 3B R/B 3.2 20:52:32 10° WNW 21:00:14 58° SSW 21:07:41 10° SE
Okean O Rocket 4.2 20:58:16 10° WSW 21:00:38 14° W 21:03:00 10° NW
Cosmos 2084 Rocket 3.5 20:59:19 10° WSW 21:03:19 49° S 21:07:22 10° E
Cosmos 1758 Rocket 4.1 20:59:17 10° NNW 21:03:29 49° ENE 21:07:33 11° SE
Cosmos 2360 Rocket 2.9 20:59:19 10° WNW 21:04:57 59° N 21:10:35 10° E
SL-16 R/B 2.2 21:00:20 10° SW 21:06:02 84° SE 21:11:47 10° NE
Cosmos 1782 Rocket 4.4 21:02:11 10° SW 21:06:24 50° WNW 21:10:39 10° NNE
Cosmos 332 Rocket 4.3 21:02:48 10° NW 21:07:28 49° WSW 21:11:40 12° S
ATLAS 5 CENTAUR R/B 3.5 21:06:07 10° W 21:08:16 14° SW 21:10:37 10° SSW
Cosmos 2333 Rocket 2.6 21:03:49 10° WNW 21:09:29 66° NNE 21:15:09 10° ESE
Meteor 2-12 Rocket 4.5 21:14:19 10° NNW 21:20:26 80° WSW 21:26:00 12° S
Cosmos 2322 Rocket 2.8 21:15:24 10° WNW 21:20:59 62° NNE 21:26:37 10° E
Cosmos 2278 4.2 21:15:51 10° WNW 21:21:33 66° NNE 21:27:16 10° ESE
Cosmos 1833 Rocket 4.1 21:19:39 12° SSE 21:23:18 22° ESE 21:27:26 10° ENE
NOSS 3-4 (A) 3.4 21:19:29 10° WSW 21:25:12 66° S 21:31:56 10° E
NOSS 3-4 (C) 3.4 21:20:01 10° WSW 21:25:46 66° S 21:32:31 10° E
USA 229 DEB 4.3 21:19:20 10° WNW 21:25:57 45° SW 21:33:12 11° SSE
USA 229 4.3 21:19:23 10° WNW 21:26:02 45° SW 21:33:18 11° SSE
ALOS 2 2.7 21:26:08 14° SSE 21:29:56 75° WSW 21:34:22 10° NNW
Cosmos 1725 Rocket 4.1 21:24:13 11° S 21:30:12 67° E 21:36:27 10° NNE
Sich 1 Rocket 3.6 21:26:27 12° S 21:30:24 65° ESE 21:34:45 10° NNE
Cosmos 1602 Rocket 4.0 21:28:51 10° NNW 21:33:07 54° ENE 21:37:06 11° SE
Cosmos 1459 Rocket 4.0 21:27:05 10° S 21:33:26 83° ESE 21:39:43 10° NNE
Spot 4 4.0 21:29:17 13° S 21:33:27 65° WSW 21:38:13 10° NNW
Cosmos 2219 Rocket 2.9 21:28:09 10° WNW 21:33:42 59° N 21:39:18 10° E
Cosmos 2237 Rocket 2.9 21:28:41 10° W 21:34:22 62° NNW 21:40:03 10° ENE
Cosmos 1850 Rocket 4.2 21:30:21 10° NW 21:35:29 59° WSW 21:39:54 14° SSE
Cosmos 1980 4.4 21:30:45 10° W 21:36:21 61° NNW 21:41:59 10° ENE
ARIANE 5 R/B 2.9 21:32:43 14° S 21:36:26 60° WSW 21:40:49 10° NNW
SJ 16-02 3.3 21:33:48 10° NW 21:36:47 19° W 21:39:45 10° SW
SL-16 R/B 2.4 21:31:07 10° WNW 21:36:50 75° NNE 21:42:32 10° ESE
ARIANE 6 FM1 Upper Stage 4.2 21:35:18 10° W 21:38:07 19° SW 21:40:04 14° S
Cosmos 2233 Rocket 4.3 21:33:59 13° S 21:39:35 59° E 21:45:41 10° NNE
ATLAS 2AS CENTAUR R/B 3.9 21:38:07 13° SSE 21:42:25 23° ESE 21:47:29 10° ENE
Meteor 2-1 Rocket 4.3 21:37:34 10° SSW 21:43:23 79° ESE 21:49:06 10° NNE
IKONOS-2 4.4 21:40:50 10° NNE 21:44:58 87° WNW 21:49:06 10° SSW
Cosmos 2056 Rocket 4.2 21:40:34 13° S 21:44:59 41° ESE 21:50:02 10° NE
Cosmos 2228 3.6 21:42:18 15° SSE 21:45:30 42° E 21:49:27 10° NNE
Cosmos 1802 Rocket 4.0 21:40:52 11° S 21:47:01 81° ESE 21:53:16 10° NNE
Cosmos 292 Rocket 4.5 21:43:11 10° NW 21:47:43 42° WSW 21:51:29 14° S
Cosmos 1743 3.1 21:45:15 10° NNW 21:48:07 38° W 21:50:20 15° SSW
Cosmos 1315 Rocket 4.4 21:46:54 10° WSW 21:50:20 32° NW 21:53:46 10° NNE
DNEPR-1 R/B 3.8 21:46:45 10° W 21:51:17 69° S 21:56:38 10° ESE
Nadezhda 4 Rocket 4.2 21:46:24 10° NNW 21:52:37 69° ENE 21:58:32 11° SSE
CZ-2C R/B 2.7 21:47:41 12° SSE 21:52:49 82° ENE 21:58:12 10° NNW
TSX-5 4.0 21:49:31 10° W 21:53:15 61° N 21:56:31 10° ENE
Aureole 1 Rocket 4.5 21:50:28 10° NW 21:53:36 32° NNE 21:57:17 10° E
ACS3 Solar Sail 3.6 21:50:36 10° NNE 21:54:56 20° ENE 21:59:18 10° ESE
Cosmos 2237 4.2 21:49:26 10° NW 21:55:12 78° SW 22:00:57 10° SE
Cosmos 1626 Rocket 3.5 21:51:09 10° NNW 21:55:28 79° WSW 21:58:59 15° S
Meteor 1-25 Rocket 4.4 21:51:20 10° NNW 21:57:14 82° ENE 22:02:36 12° SSE
USA 234 3.7 21:52:38 10° ESE 21:58:40 37° S 22:04:41 10° WSW
RESURS DK-1 3.1 21:55:55 10° W 21:59:50 56° N 22:03:47 10° ENE
SeaSat 1 3.8 21:56:42 12° SSW 22:00:21 25° WSW 22:04:26 10° WNW
Cosmos 1697 Rocket 3.5 21:56:01 10° NW 22:01:07 36° WSW 22:05:25 14° S
Cosmos 2016 Rocket 4.1 21:55:13 11° S 22:01:18 84° ESE 22:07:37 10° NNE
SAR-Lupe-2 4.3 22:00:40 15° SSW 22:03:06 37° W 22:06:16 10° NNW
Cosmos 2173 Rocket 4.2 22:04:03 10° SSW 22:10:08 69° WNW 22:16:18 10° NNE
Cosmos 1536 4.4 22:07:42 10° N 22:10:55 28° NE 22:14:08 10° ESE
Helios 1B rocket 4.2 22:09:50 10° SW 22:12:13 17° W 22:14:38 10° NW
Cosmos 2151 3.0 22:09:06 10° NNW 22:13:17 75° WSW 22:16:37 16° S
Cosmos 1782 2.6 22:11:12 17° S 22:13:50 66° ESE 22:17:21 10° NNE
Cosmos 1603 3.7 22:09:29 10° SW 22:15:09 71° SE 22:20:53 10° NE
SL-19 R/B 4.0 22:14:38 13° SE 22:16:54 51° ENE 22:19:37 10° NNW
Cosmos 1943 3.3 22:11:19 10° SW 22:17:02 87° NW 22:22:45 10° NE
Helios 1A 3.4 22:13:47 10° NNE 22:17:43 57° WNW 22:21:37 10° SW
Meteor 1-20 Rocket 4.3 22:14:57 10° NNW 22:20:24 69° WSW 22:25:03 14° S
Meteor 1-5 Rocket 4.2 22:16:26 10° NNW 22:21:49 86° ENE 22:26:56 12° SSE
Cosmos 1980 Rocket 2.7 22:16:37 10° NW 22:22:01 45° WSW 22:26:39 14° S
Cosmos 2151 Rocket 4.4 22:17:51 10° SW 22:22:07 48° WNW 22:26:24 10° NNE
Okean 1-7 Rocket 3.6 22:17:48 10° NNW 22:22:13 79° ENE 22:26:05 13° SSE
Okean 1 Rocket 3.5 22:17:57 10° SW 22:22:15 59° WNW 22:26:37 10° NNE
Cosmos 2026 Rocket 4.3 22:16:22 10° NNW 22:22:36 68° ENE 22:28:54 10° SSE
Meteor 2-10 4.2 22:17:34 10° NNW 22:23:01 81° ENE 22:28:24 11° SSE
USA 281 3.4 22:17:21 10° SE 22:23:56 79° NE 22:30:33 10° NW
Cosmos 1076 Rocket 3.9 22:19:56 10° NNW 22:24:15 61° ENE 22:28:27 10° SSE
ARGOS Delta rocket 3.9 22:20:01 10° NNE 22:24:27 61° E 22:28:14 15° S
CZ-2C R/B 3.6 22:21:05 10° NNE 22:25:32 88° ESE 22:29:25 13° SSW
GRACE-FO 1 4.5 22:23:12 17° S 22:25:47 79° W 22:29:17 10° N
GRACE-FO 2 4.5 22:23:40 17° S 22:26:15 79° W 22:29:45 10° N
Cosmos 1371 Rocket 4.2 22:23:18 12° SSW 22:28:05 61° ESE 22:33:21 10° NE
Okean 2 Rocket 3.8 22:24:58 10° SW 22:29:20 52° WNW 22:33:43 10° NNE
Cosmos 1503 Rocket 4.4 22:24:59 10° NW 22:30:19 69° NE 22:35:34 10° ESE
MetOp-A 4.5 22:27:45 14° S 22:31:56 50° W 22:36:56 10° NNW
Cosmos 1805 2.7 22:29:08 10° NNW 22:32:26 89° WSW 22:34:56 16° SSE
Cosmos 1455 Rocket 3.2 22:28:48 12° SSW 22:32:49 75° WNW 22:37:17 10° NNE
Cosmos 2369 3.9 22:30:03 10° NW 22:35:35 54° SW 22:40:56 11° SSE
COSMOS 2428 3.4 22:30:28 10° WNW 22:36:11 60° NNE 22:41:52 10° E
Cosmos 44 3.5 22:31:57 10° WSW 22:37:17 75° S 22:42:43 10° E
Cosmos 1092 Rocket 4.2 22:31:28 10° NNW 22:37:39 71° ENE 22:43:47 10° SSE
NOSS 0 Rocket 4.4 22:33:30 10° WNW 22:39:44 67° N 22:45:56 10° E
Cosmos 1758 Rocket 4.2 22:37:09 10° NNW 22:41:14 44° W 22:44:33 15° SSW
Cosmos 2061 Rocket 4.0 22:35:46 12° SSW 22:41:29 86° WNW 22:47:47 10° NNE
Cosmos 2084 Rocket 3.7 22:37:44 10° W 22:41:39 41° SSW 22:45:37 10° SE
Cosmos 1544 Rocket 3.8 22:38:21 15° S 22:41:53 61° E 22:46:14 10° NNE
Cosmos 1486 Rocket 4.0 22:39:48 10° NW 22:45:03 89° NE 22:50:18 10° SE
Cosmos 1452 Rocket 4.3 22:41:37 14° S 22:45:37 38° ESE 22:50:26 10° NE
Meteor 1-27 4.3 22:40:55 12° SSW 22:46:23 81° WNW 22:52:07 10° NNE
Cosmos 2360 Rocket 2.2 22:43:38 10° NW 22:49:22 90° NE 22:55:04 10° SE
ATLAS 3B R/B 3.8 22:43:13 10° WNW 22:49:56 32° SW 22:55:41 13° S
SL-16 R/B 2.9 22:44:52 10° W 22:50:31 61° NNW 22:56:11 10° ENE
Cosmos 2333 Rocket 2.2 22:48:19 10° NW 22:53:59 72° SW 22:59:39 10° SE
Cosmos 1777 Rocket 4.0 22:49:10 10° NW 22:54:29 89° SW 22:59:46 10° SE
Cosmos 1953 Rocket 3.6 22:51:35 10° NNW 22:56:05 82° ENE 23:00:19 11° SSE
Cosmos 1420 Rocket 4.2 22:55:34 10° SW 23:00:52 77° NW 23:06:14 10° NE
Aureole 3 Rocket 4.2 22:58:44 13° SSW 23:03:50 80° WNW 23:11:40 10° NNE
CZ-2C R/B 3.2 22:59:23 10° NNE 23:04:32 73° ESE 23:09:16 14° SSW
Cosmos 1933 3.3 23:02:05 16° S 23:05:03 65° ESE 23:08:51 10° NNE
Cosmos 2322 Rocket 2.2 22:59:41 10° NW 23:05:20 80° SW 23:11:00 10° SE
Cosmos 2278 3.7 23:00:10 10° NW 23:05:52 70° SW 23:11:33 10° SE
Cosmos 1825 Rocket 3.6 23:01:50 10° NNW 23:06:07 64° W 23:09:41 14° S
Cosmos 1833 Rocket 2.9 23:01:16 13° SSW 23:06:15 57° SE 23:11:46 10° NE
ALOS 2 4.4 23:03:37 10° SW 23:07:00 21° W 23:10:24 10° NW
Cosmos 2082 Rocket 3.6 23:02:51 11° SSE 23:07:20 26° ESE 23:12:00 10° NE
Cosmos 1602 Rocket 4.3 23:06:44 10° NNW 23:10:46 40° W 23:14:04 14° SSW
PSLV R/B 3.6 23:06:44 10° NNE 23:10:55 70° WNW 23:14:38 13° SSW
NOSS 3-4 (A) 3.6 23:09:49 10° W 23:15:43 56° SSW 23:22:40 10° SE
NOSS 3-4 (C) 3.7 23:10:21 10° W 23:16:16 56° SSW 23:23:14 10° SE
Cosmos 1470 3.5 23:13:44 10° NNW 23:16:58 42° ENE 23:20:10 10° SE
Cosmos 2219 Rocket 2.2 23:12:23 10° NW 23:18:03 89° SSW 23:23:44 10° SE
Cosmos 1437 Rocket 2.8 23:16:08 15° S 23:18:48 55° ESE 23:22:15 10° NNE
Cosmos 2237 Rocket 2.9 23:13:26 10° WNW 23:19:06 59° N 23:24:46 10° E
SL-16 R/B 2.4 23:15:21 10° NW 23:20:54 55° SW 23:26:25 10° SSE
Cosmos 1980 4.4 23:15:28 10° WNW 23:21:06 60° NNE 23:26:42 10° E
Landsat 5 3.7 23:17:04 10° NNE 23:21:19 68° ESE 23:24:55 14° S
Cosmos 2228 3.6 23:18:31 11° SW 23:22:29 49° WNW 23:26:33 10° NNE
Cosmos-2242 4.2 23:20:17 10° SSE 23:24:03 33° E 23:27:48 10° NNE
Cosmos 2056 Rocket 3.7 23:21:22 10° SW 23:26:49 79° NW 23:32:15 10° NE
SL-16 R/B 4.2 23:23:16 10° E 23:28:58 38° NE 23:34:40 10° NNW
Cosmos 1707 4.1 23:26:56 10° SE 23:29:12 21° E 23:31:27 10° NE
Meteor 1-11 Rocket 4.5 23:24:27 10° NNW 23:30:22 59° ENE 23:36:09 10° SE
ATLAS 2AS CENTAUR R/B 3.1 23:25:29 10° SW 23:32:00 47° SE 23:38:25 10° ENE
MOZ.5/SAFIR/RUBIN 5/SL-8 4.5 23:27:37 10° SE 23:32:10 56° ENE 23:36:43 10° NNW
Cosmos 1331 Rocket 4.1 23:27:28 12° SSW 23:32:19 73° SE 23:37:34 10° NE
Cosmos 1766 2.7 23:29:55 10° NNW 23:33:09 79° WSW 23:36:05 12° SSE
CZ-2C R/B 3.6 23:29:07 13° SSW 23:33:34 35° W 23:38:28 10° NNW
Cosmos 1624 Rocket 4.2 23:29:13 10° SW 23:34:25 75° NW 23:39:38 10° NE
TSX-5 3.6 23:30:57 10° WNW 23:34:29 72° NNE 23:37:39 10° ESE
Aureole 1 Rocket 2.9 23:32:20 10° NW 23:35:55 78° NE 23:40:21 10° SE
Okean 1 3.5 23:33:17 13° S 23:36:16 51° E 23:39:45 10° NNE
Meteor 1-14 Rocket 4.4 23:31:26 10° NNW 23:37:18 79° ENE 23:42:59 10° SSE
RESURS DK-1 2.9 23:33:40 10° WNW 23:37:37 60° NNE 23:41:35 10° E
DNEPR-1 R/B 4.2 23:33:40 10° WNW 23:38:15 47° SSW 23:43:41 10° SE
ACS3 Solar Sail 2.2 23:32:46 10° NNE 23:38:39 55° E 23:44:38 10° S
IDEFIX/ARIANE 42P 3.9 23:35:53 10° NNE 23:40:33 33° E 23:45:13 10° SSE
Cosmos 2322 4.0 23:35:12 10° WNW 23:40:59 78° NNE 23:46:43 10° ESE
Cosmos 2098 Rocket 3.7 23:36:56 13° SSW 23:42:08 88° WNW 23:47:33 10° NNE
USA 234 3.7 23:36:53 10° SE 23:42:52 37° SSW 23:48:51 10° WSW
Cosmos 990 Rocket 3.9 23:39:24 10° NW 23:44:32 76° SW 23:49:41 10° SSE
DELTA 2 DEB (DPAF) 3.6 23:41:05 10° NNE 23:44:42 74° ESE 23:47:47 14° SSW
Cosmos 1536 2.6 23:42:51 10° NNW 23:46:31 71° WSW 23:50:04 11° S
Cosmos 2333 4.2 23:41:48 10° NW 23:47:24 65° SW 23:53:02 10° SSE
Cosmos 1782 4.1 23:45:41 10° WSW 23:48:47 28° NW 23:51:54 10° N
Cosmos 1110 Rocket 4.1 23:44:35 10° SW 23:49:48 87° SE 23:55:10 10° NE
PSLV R/B 4.2 23:50:31 10° NNE 23:54:18 54° ESE 23:57:53 11° S
